TimeMDT,TemperatureF,Dew PointF,Humidity,Sea Level PressureIn,VisibilityMPH,Wind Direction,Wind SpeedMPH,Gust SpeedMPH,PrecipitationIn,Events,Conditions,WindDirDegrees,DateUTC
12:15 AM,-9999,-9999,N/A,30.30,-9999.0,NW,32.2,-,N/A,,Overcast,310,2012-10-06 06:15:00
12:35 AM,-9999,-9999,N/A,30.30,-9999.0,NW,33.4,-,N/A,,Overcast,310,2012-10-06 06:35:00
12:55 AM,-9999,-9999,N/A,30.31,-9999.0,NW,34.5,-,N/A,,Overcast,310,2012-10-06 06:55:00
1:15 AM,-9999,-9999,N/A,30.32,-9999.0,NW,31.1,-,N/A,,Overcast,310,2012-10-06 07:15:00
1:35 AM,-9999,-9999,N/A,30.32,-9999.0,WNW,28.8,-,N/A,,Overcast,300,2012-10-06 07:35:00
1:55 AM,-9999,-9999,N/A,30.32,-9999.0,North,-9999.0,-,N/A,,Overcast,0,2012-10-06 07:55:00
2:15 AM,-9999,-9999,N/A,30.32,-9999.0,NW,28.8,-,N/A,,Overcast,310,2012-10-06 08:15:00
2:35 AM,-9999,-9999,N/A,30.33,-9999.0,NW,27.6,-,N/A,,Overcast,310,2012-10-06 08:35:00
2:55 AM,-9999,-9999,N/A,30.33,-9999.0,NW,26.5,-,N/A,,Overcast,310,2012-10-06 08:55:00
3:15 AM,-9999,-9999,N/A,30.34,-9999.0,NW,27.6,-,N/A,,Overcast,310,2012-10-06 09:15:00
3:35 AM,-9999,-9999,N/A,30.33,-9999.0,NW,28.8,-,N/A,,Overcast,310,2012-10-06 09:35:00
3:55 AM,-9999,-9999,N/A,30.33,-9999.0,NW,28.8,-,N/A,,Overcast,320,2012-10-06 09:55:00
4:35 AM,-9999,-9999,N/A,30.34,-9999.0,NW,23.0,-,N/A,,Overcast,320,2012-10-06 10:35:00
4:55 AM,-9999,-9999,N/A,30.34,-9999.0,NW,19.6,-,N/A,,Overcast,320,2012-10-06 10:55:00
5:15 AM,-9999,-9999,N/A,30.34,-9999.0,NW,20.7,-,N/A,,Overcast,310,2012-10-06 11:15:00
5:35 AM,-9999,-9999,N/A,30.35,-9999.0,NW,17.3,-,N/A,,Unknown,310,2012-10-06 11:35:00
6:15 AM,-9999,-9999,N/A,30.34,-9999.0,NW,21.9,-,N/A,,Overcast,310,2012-10-06 12:15:00
6:35 AM,-9999,-9999,N/A,30.35,-9999.0,NW,19.6,-,N/A,,Overcast,310,2012-10-06 12:35:00
6:55 AM,-9999,-9999,N/A,30.35,-9999.0,WNW,17.3,-,N/A,,Overcast,300,2012-10-06 12:55:00
7:15 AM,-9999,-9999,N/A,30.35,-9999.0,NW,15.0,-,N/A,,Overcast,310,2012-10-06 13:15:00
7:35 AM,-9999,-9999,N/A,30.35,-9999.0,NW,15.0,-,N/A,,Mostly Cloudy,320,2012-10-06 13:35:00
7:55 AM,-9999,-9999,N/A,30.36,-9999.0,NW,11.5,-,N/A,,Unknown,310,2012-10-06 13:55:00
8:15 AM,-9999,-9999,N/A,30.36,-9999.0,WNW,11.5,-,N/A,,Unknown,300,2012-10-06 14:15:00
8:35 AM,-9999,-9999,N/A,30.37,-9999.0,WNW,9.2,-,N/A,,Unknown,290,2012-10-06 14:35:00
8:55 AM,-9999,-9999,N/A,30.38,-9999.0,WSW,5.8,-,N/A,,Unknown,250,2012-10-06 14:55:00
9:15 AM,-9999,-9999,N/A,30.38,-9999.0,West,8.1,-,N/A,,Unknown,280,2012-10-06 15:15:00
9:35 AM,19.4,17.6,93,30.38,-9999.0,West,6.9,-,N/A,,Unknown,260,2012-10-06 15:35:00
9:55 AM,21.2,19.4,93,30.38,-9999.0,South,4.6,-,N/A,,Unknown,180,2012-10-06 15:55:00
10:15 AM,21.2,19.4,93,30.38,-9999.0,SE,9.2,-,N/A,,Unknown,140,2012-10-06 16:15:00
10:35 AM,21.2,21.2,100,30.38,-9999.0,SE,11.5,-,N/A,,Unknown,130,2012-10-06 16:35:00
10:55 AM,23.0,21.2,93,30.37,-9999.0,SE,9.2,-,N/A,,Overcast,140,2012-10-06 16:55:00
11:15 AM,23.0,21.2,93,30.36,-9999.0,SE,12.7,17.3,N/A,,Overcast,140,2012-10-06 17:15:00
11:35 AM,23.0,21.2,93,30.36,-9999.0,SE,11.5,-,N/A,,Overcast,140,2012-10-06 17:35:00
11:55 AM,23.0,21.2,93,30.36,-9999.0,SSE,11.5,-,N/A,,Overcast,150,2012-10-06 17:55:00
12:15 PM,23.0,23.0,100,30.36,-9999.0,SE,12.7,17.3,N/A,,Unknown,140,2012-10-06 18:15:00
12:35 PM,23.0,23.0,100,30.36,-9999.0,SSE,9.2,-,N/A,,Overcast,150,2012-10-06 18:35:00
12:55 PM,23.0,23.0,100,30.36,-9999.0,SE,11.5,16.1,N/A,,Unknown,140,2012-10-06 18:55:00
1:15 PM,24.8,23.0,93,30.35,-9999.0,SE,8.1,-,N/A,,Unknown,140,2012-10-06 19:15:00
1:35 PM,26.6,23.0,86,30.34,-9999.0,SSE,6.9,-,N/A,,Unknown,150,2012-10-06 19:35:00
2:15 PM,28.4,21.2,74,30.32,-9999.0,SSE,4.6,-,N/A,,Clear,160,2012-10-06 20:15:00
2:35 PM,28.4,21.2,74,30.31,-9999.0,South,3.5,-,N/A,,Clear,180,2012-10-06 20:35:00
2:55 PM,30.2,21.2,69,30.31,10.0,SSW,3.5,-,N/A,,Clear,210,2012-10-06 20:55:00
3:15 PM,30.2,19.4,64,30.30,10.0,South,5.8,-,N/A,,Clear,170,2012-10-06 21:15:00
3:35 PM,30.2,21.2,69,30.30,10.0,Calm,Calm,-,N/A,,Clear,0,2012-10-06 21:35:00
3:55 PM,30.2,21.2,69,30.30,10.0,SSE,3.5,-,N/A,,Clear,150,2012-10-06 21:55:00
4:15 PM,30.2,21.2,69,30.29,10.0,Calm,Calm,-,N/A,,Clear,0,2012-10-06 22:15:00
4:35 PM,30.2,19.4,64,30.28,10.0,Calm,Calm,-,N/A,,Clear,0,2012-10-06 22:35:00
5:15 PM,32.0,21.2,64,30.28,10.0,Calm,Calm,-,N/A,,Scattered Clouds,0,2012-10-06 23:15:00
5:35 PM,30.2,21.2,69,30.28,10.0,Calm,Calm,-,N/A,,Scattered Clouds,0,2012-10-06 23:35:00
5:55 PM,30.2,21.2,69,30.27,10.0,Calm,Calm,-,N/A,,Mostly Cloudy,0,2012-10-06 23:55:00
6:15 PM,30.2,21.2,69,30.27,10.0,Calm,Calm,-,N/A,,Mostly Cloudy,0,2012-10-07 00:15:00
6:35 PM,30.2,21.2,69,30.26,10.0,Calm,Calm,-,N/A,,Mostly Cloudy,0,2012-10-07 00:35:00
6:55 PM,28.4,19.4,69,30.26,10.0,SSE,3.5,-,N/A,,Clear,150,2012-10-07 00:55:00
7:15 PM,28.4,19.4,69,30.26,10.0,SSE,3.5,-,N/A,,Scattered Clouds,150,2012-10-07 01:15:00
7:35 PM,28.4,19.4,69,30.26,10.0,SE,3.5,-,N/A,,Mostly Cloudy,140,2012-10-07 01:35:00
7:55 PM,28.4,19.4,69,30.27,10.0,SSE,5.8,-,N/A,,Scattered Clouds,160,2012-10-07 01:55:00
8:15 PM,28.4,19.4,69,30.28,10.0,SSE,3.5,-,N/A,,Clear,160,2012-10-07 02:15:00
8:35 PM,28.4,19.4,69,30.28,10.0,Calm,Calm,-,N/A,,Clear,0,2012-10-07 02:35:00
8:55 PM,28.4,19.4,69,30.28,10.0,SSE,4.6,-,N/A,,Clear,160,2012-10-07 02:55:00
9:15 PM,28.4,19.4,69,30.28,10.0,South,4.6,-,N/A,,Clear,170,2012-10-07 03:15:00
9:35 PM,28.4,19.4,69,30.28,10.0,Calm,Calm,-,N/A,,Clear,0,2012-10-07 03:35:00
9:55 PM,28.4,19.4,69,30.28,10.0,West,4.6,-,N/A,,Scattered Clouds,270,2012-10-07 03:55:00
10:15 PM,28.4,19.4,69,30.28,10.0,West,4.6,-,N/A,,Scattered Clouds,260,2012-10-07 04:15:00
10:35 PM,28.4,19.4,69,30.27,10.0,West,4.6,-,N/A,,Mostly Cloudy,270,2012-10-07 04:35:00
10:55 PM,28.4,19.4,69,30.27,10.0,WNW,4.6,-,N/A,,Scattered Clouds,290,2012-10-07 04:55:00
11:15 PM,28.4,19.4,69,30.26,10.0,WNW,10.4,-,N/A,,Scattered Clouds,290,2012-10-07 05:15:00
11:35 PM,26.6,19.4,74,30.26,10.0,West,10.4,-,N/A,,Scattered Clouds,280,2012-10-07 05:35:00
11:55 PM,26.6,19.4,74,30.26,10.0,West,8.1,-,N/A,,Scattered Clouds,280,2012-10-07 05:55:00